Tracking 29747 objects as of 9-Oct-2024
HD Live streaming from Space Station
objects crossing your sky now

YAOGAN-34

Track YAOGAN-34 now!
10-day predictions


NORAD ID: 48340
Int'l Code: 2021-037A
Perigee: 1,042.6 km
Apogee: 1,150.6 km
Inclination: 63.4 °
Period: 107.0 minutes
Semi major axis: 7467 km
RCS: Unknown
Launch date: April 30, 2021
Source: People's Republic of China (PRC)
Launch site: Jiuquan Satellite Launch Center, China (JSC)
Your satellite tracking list
Your tracking list is empty




NASA's NSSDC Master Catalog

Two Line Element Set (TLE):
1 48340U 21037A   24283.18090452  .00000020  00000-0  18308-3 0  9995
2 48340  63.4026 288.5973 0072305 356.5613   3.4907 13.45348275169214
Source of the keplerian elements: AFSPC